• In Uzbekistan
  • List of Countries
  • For 7 days
  • Water Temperature
  • Satellite Maps
  • Weather Map
  • Weather Widgets
  • user-avatar
    Login

    Hourly Weather Yulara

    Today, 26 May, Friday

    Time Temperature Precipitation Wind Pressure Humidity
    00:00 +19°C° 0.3 mm 3 mps 721 mmHg 55%
    01:00 +19°C° 0.3 mm 3 mps 721 mmHg 55%
    02:00 +18°C° 0.3 mm 3 mps 720 mmHg 56%
    03:00 +18°C° 0 mm 2 mps 720 mmHg 58%
    04:00 +18°C° 0.4 mm 2 mps 720 mmHg 56%
    05:00 +18°C° 0.4 mm 2 mps 720 mmHg 55%
    06:00 +17°C° 0.4 mm 2 mps 720 mmHg 53%
    07:00 +18°C° 0.3 mm 2 mps 721 mmHg 49%
    08:00 +19°C° 0.3 mm 2 mps 721 mmHg 45%
    09:00 +20°C° 0 mm 2 mps 721 mmHg 37%
    10:00 +22°C° 0 mm 3 mps 721 mmHg 34%
    11:00 +24°C° 0 mm 3 mps 721 mmHg 30%
    12:00 +26°C° 0 mm 4 mps 720 mmHg 27%
    13:00 +26°C° 0 mm 4 mps 720 mmHg 28%
    14:00 +27°C° 0 mm 5 mps 720 mmHg 28%
    15:00 +28°C° 0 mm 5 mps 719 mmHg 29%
    16:00 +27°C° 0 mm 4 mps 719 mmHg 31%
    17:00 +26°C° 0 mm 3 mps 719 mmHg 34%
    18:00 +25°C° 0 mm 3 mps 719 mmHg 36%
    19:00 +24°C° 0 mm 2 mps 719 mmHg 37%
    20:00 +24°C° 0 mm 2 mps 719 mmHg 39%
    21:00 +23°C° 0 mm 2 mps 719 mmHg 40%
    22:00 +22°C° 0 mm 3 mps 719 mmHg 40%
    23:00 +21°C° 0 mm 3 mps 719 mmHg 41%

    Tomorrow, 27 May, Saturday

    Time Temperature Precipitation Wind Pressure Humidity
    00:00 +20°C° 0 mm 4 mps 720 mmHg 42%
    01:00 +20°C° 0 mm 4 mps 720 mmHg 40%
    02:00 +19°C° 0 mm 4 mps 719 mmHg 39%
    03:00 +19°C° 0 mm 5 mps 719 mmHg 38%
    04:00 +19°C° 0 mm 4 mps 719 mmHg 38%
    05:00 +18°C° 0 mm 4 mps 719 mmHg 37%
    06:00 +18°C° 0 mm 3 mps 719 mmHg 37%
    07:00 +19°C° 0 mm 3 mps 720 mmHg 34%
    08:00 +20°C° 0 mm 3 mps 720 mmHg 31%
    09:00 +20°C° 0 mm 3 mps 721 mmHg 27%
    10:00 +21°C° 0 mm 2 mps 721 mmHg 25%
    11:00 +24°C° 0 mm 2 mps 721 mmHg 22%
    12:00 +25°C° 0 mm 1 mps 721 mmHg 19%
    13:00 +25°C° 0 mm 2 mps 720 mmHg 21%
    14:00 +25°C° 0 mm 2 mps 720 mmHg 22%
    15:00 +25°C° 0 mm 2 mps 720 mmHg 24%
    16:00 +24°C° 0 mm 2 mps 720 mmHg 27%
    17:00 +23°C° 0 mm 1 mps 720 mmHg 29%
    18:00 +22°C° 0 mm 1 mps 720 mmHg 32%
    19:00 +21°C° 0 mm 1 mps 720 mmHg 34%
    20:00 +20°C° 0 mm 1 mps 720 mmHg 35%
    21:00 +19°C° 0 mm 1 mps 721 mmHg 36%
    22:00 +19°C° 0 mm 1 mps 721 mmHg 36%
    23:00 +19°C° 0 mm 1 mps 721 mmHg 36%

    Day after tomorrow, 28 May, Sunday

    Time Temperature Precipitation Wind Pressure Humidity
    00:00 +18°C° 0 mm 1 mps 721 mmHg 36%
    01:00 +17°C° 0 mm 2 mps 721 mmHg 36%
    02:00 +17°C° 0 mm 3 mps 721 mmHg 36%
    03:00 +17°C° 0 mm 3 mps 721 mmHg 36%
    04:00 +15°C° 0 mm 4 mps 721 mmHg 39%
    05:00 +14°C° 0 mm 4 mps 721 mmHg 41%
    06:00 +13°C° 0 mm 4 mps 721 mmHg 44%
    07:00 +14°C° 0 mm 4 mps 722 mmHg 45%
    08:00 +15°C° 0 mm 5 mps 722 mmHg 45%
    09:00 +16°C° 0 mm 5 mps 723 mmHg 46%
    10:00 +17°C° 0 mm 5 mps 723 mmHg 43%
    11:00 +19°C° 0 mm 5 mps 723 mmHg 39%
    12:00 +21°C° 0 mm 5 mps 723 mmHg 35%
    13:00 +21°C° 0 mm 4 mps 722 mmHg 34%
    14:00 +22°C° 0 mm 4 mps 721 mmHg 33%
    15:00 +22°C° 0 mm 3 mps 721 mmHg 31%
    16:00 +21°C° 0 mm 3 mps 721 mmHg 34%
    17:00 +21°C° 0 mm 3 mps 721 mmHg 37%
    18:00 +20°C° 0 mm 3 mps 721 mmHg 39%
    19:00 +19°C° 0 mm 4 mps 722 mmHg 42%
    20:00 +18°C° 0 mm 4 mps 723 mmHg 45%
    21:00 +18°C° 0 mm 4 mps 723 mmHg 48%
    22:00 +17°C° 0 mm 4 mps 723 mmHg 49%
    23:00 +15°C° 0 mm 4 mps 723 mmHg 51%

    29 May, Monday

    Time Temperature Precipitation Wind Pressure Humidity
    00:00 +15°C° 0 mm 4 mps 723 mmHg 52%
    01:00 +14°C° 0 mm 4 mps 723 mmHg 52%
    02:00 +14°C° 0 mm 4 mps 723 mmHg 52%
    03:00 +13°C° 0 mm 4 mps 723 mmHg 51%
    04:00 +12°C° 0 mm 4 mps 723 mmHg 54%
    05:00 +12°C° 0 mm 4 mps 723 mmHg 57%
    06:00 +11°C° 0 mm 4 mps 723 mmHg 60%
    07:00 +12°C° 0 mm 4 mps 723 mmHg 59%
    08:00 +13°C° 0 mm 5 mps 724 mmHg 58%
    09:00 +13°C° 0 mm 5 mps 724 mmHg 57%
    10:00 +15°C° 0 mm 4 mps 724 mmHg 52%
    11:00 +17°C° 0 mm 4 mps 724 mmHg 48%
    12:00 +18°C° 0 mm 4 mps 724 mmHg 43%
    13:00 +19°C° 0 mm 3 mps 723 mmHg 41%
    14:00 +20°C° 0 mm 2 mps 722 mmHg 39%
    15:00 +20°C° 0 mm 2 mps 722 mmHg 37%
    16:00 +19°C° 0 mm 2 mps 722 mmHg 39%
    17:00 +19°C° 0 mm 2 mps 722 mmHg 41%
    18:00 +18°C° 0 mm 2 mps 722 mmHg 43%
    19:00 +17°C° 0 mm 2 mps 723 mmHg 44%
    20:00 +17°C° 0 mm 2 mps 723 mmHg 46%
    21:00 +16°C° 0 mm 3 mps 724 mmHg 47%
    22:00 +16°C° 0 mm 3 mps 724 mmHg 48%
    23:00 +14°C° 0 mm 3 mps 724 mmHg 50%

    30 May, Tuesday

    Time Temperature Precipitation Wind Pressure Humidity
    00:00 +14°C° 0 mm 3 mps 724 mmHg 51%
    01:00 +13°C° 0 mm 3 mps 723 mmHg 53%
    02:00 +14°C° 0 mm 2 mps 723 mmHg 54%
    03:00 +13°C° 0 mm 2 mps 723 mmHg 55%
    04:00 +13°C° 0 mm 2 mps 723 mmHg 56%
    05:00 +12°C° 0 mm 2 mps 723 mmHg 57%
    06:00 +12°C° 0 mm 2 mps 723 mmHg 58%
    07:00 +13°C° 0 mm 2 mps 724 mmHg 54%
    08:00 +14°C° 0 mm 2 mps 725 mmHg 50%
    09:00 +14°C° 0 mm 3 mps 725 mmHg 46%
    10:00 +16°C° 0 mm 3 mps 725 mmHg 42%
    11:00 +18°C° 0 mm 4 mps 725 mmHg 38%
    12:00 +19°C° 0 mm 4 mps 725 mmHg 34%
    13:00 +19°C° 0 mm 5 mps 724 mmHg 32%
    14:00 +20°C° 0 mm 5 mps 724 mmHg 31%
    15:00 +20°C° 0 mm 5 mps 723 mmHg 29%
    16:00 +19°C° 0 mm 5 mps 724 mmHg 32%
    17:00 +17°C° 0 mm 5 mps 724 mmHg 34%
    18:00 +16°C° 0 mm 5 mps 724 mmHg 37%
    19:00 +15°C° 0 mm 5 mps 724 mmHg 38%
    20:00 +15°C° 0 mm 5 mps 725 mmHg 40%
    21:00 +14°C° 0 mm 4 mps 725 mmHg 41%
    22:00 +14°C° 0 mm 5 mps 725 mmHg 45%
    23:00 +13°C° 0 mm 5 mps 725 mmHg 48%

    31 May, Wednesday

    Time Temperature Precipitation Wind Pressure Humidity
    00:00 +13°C° 0 mm 5 mps 725 mmHg 51%
    01:00 +12°C° 0 mm 5 mps 725 mmHg 56%
    02:00 +12°C° 0 mm 5 mps 725 mmHg 61%
    03:00 +10°C° 0 mm 5 mps 726 mmHg 67%
    04:00 +10°C° 0 mm 5 mps 726 mmHg 68%
    05:00 +9°C° 0 mm 5 mps 726 mmHg 69%
    06:00 +9°C° 0 mm 5 mps 726 mmHg 70%
    07:00 +9°C° 0 mm 6 mps 726 mmHg 64%
    08:00 +10°C° 0 mm 7 mps 727 mmHg 58%
    09:00 +10°C° 0 mm 8 mps 727 mmHg 52%
    10:00 +12°C° 0 mm 8 mps 726 mmHg 47%
    11:00 +14°C° 0 mm 7 mps 726 mmHg 42%
    12:00 +15°C° 0 mm 7 mps 726 mmHg 36%
    13:00 +16°C° 0 mm 7 mps 725 mmHg 34%
    14:00 +17°C° 0 mm 7 mps 725 mmHg 31%
    15:00 +17°C° 0 mm 7 mps 724 mmHg 28%
    16:00 +16°C° 0 mm 6 mps 725 mmHg 30%
    17:00 +15°C° 0 mm 6 mps 725 mmHg 33%
    18:00 +14°C° 0 mm 5 mps 725 mmHg 35%
    19:00 +13°C° 0 mm 5 mps 726 mmHg 37%
    20:00 +13°C° 0 mm 5 mps 726 mmHg 40%
    21:00 +12°C° 0 mm 5 mps 727 mmHg 42%
    22:00 +10°C° 0 mm 5 mps 727 mmHg 42%
    23:00 +10°C° 0 mm 6 mps 727 mmHg 43%
    Show more